[[{"header":{"parameterUnit":"m.s-1","parameterCategory":1,"la1":30.2991,"la2":30.254,"lo1":-89.0895,"lo2":-89.0444,"dy":0.0017,"dx":0.0017,"nx":28,"ny":28,"refTime":"2025-09-05T21:00:00:Z","depth":0,"parameterNumber":2,"parameterNumberName":"U-component_of_WINDS"},"data":[0,0,0,0,0,0,0,0,0,0,0,0,0,0,0,0,0,0,0,0,0,0,0,0,0,0,0,0,0,0,0,0,0,0,0,0,0,0,0,0,0,0,0,0,0,0,0,0,0,0,0,0,0,0,0,0,0,0,0.087,0.087,0,0.0855,0.0855,0.0854,0.0856,0.0857,0.0857,0.0857,0.084,0.0839,0.0839,0,0,0,0,0,0,0,0,0,0,0,0,0,0.09,0.0899,0.087,0.087,0.087,0.0855,0.0855,0.0854,0.0856,0.0857,0.0857,0.0857,0.084,0.084,0.0839,0,0,0,0,0,0,0,0,0,0,0,0,0,0.0886,0.0899,0.087,0.0869,0.0869,0.0855,0.0855,0.0854,0.0856,0.0857,0.0857,0.0857,0.0841,0.084,0.0839,0.0825,0,0,0.0835,0.0835,0,0,0,0,0,0,0,0,0.0886,0.0885,0.0869,0.0869,0.0869,0.0858,0.0859,0.0844,0.0856,0.0861,0.0857,0.0857,0.0846,0.0844,0.084,0.0824,0.0823,0.0835,0.0835,0.0834,0.0834,0,0,0,0,0,0,0,0.0887,0.0885,0.0864,0.0869,0.0869,0.0869,0.0867,0.0856,0.0851,0.0861,0.0861,0.0859,0.0846,0.0841,0.084,0.0823,0.0835,0.0835,0.0834,0.0833,0.0792,0.0792,0,0,0,0,0,0,0.0889,0.0886,0.0865,0.0864,0.0879,0.0868,0.0866,0.0861,0.0851,0.085,0.0859,0.0859,0.0843,0.0841,0.084,0.0821,0.0834,0.0833,0.0833,0.0793,0.0792,0.0791,0,0,0,0,0,0,0.089,0.0887,0.0865,0.0875,0.0872,0.0867,0.0861,0.086,0.0856,0.085,0.0849,0.0855,0.0843,0.0841,0.0828,0.0821,0.0833,0.0832,0.0793,0.0792,0.0792,0.0785,0,0,0,0,0,0,0.089,0.0887,0.0882,0.0875,0.0872,0.0855,0.0861,0.086,0.0855,0.0855,0.0847,0.0846,0.0843,0.083,0.0827,0.082,0.0831,0.0794,0.0793,0.0792,0.0786,0.0785,0.0783,0,0,0,0,0,0.0891,0.0881,0.0882,0.088,0.0866,0.0854,0.0852,0.085,0.0854,0.0849,0.0844,0.0846,0.0822,0.0828,0.0825,0.0817,0.0794,0.0793,0.0792,0.0787,0.0785,0.0783,0,0,0,0,0,0,0.0888,0.088,0.0881,0.0869,0.0862,0.0855,0.0848,0.0848,0.084,0.0841,0.0839,0.0837,0.0823,0.0819,0.0826,0.0802,0.0809,0.0807,0.0806,0.0804,0.0802,0.0803,0.083,0,0,0,0,0,0.0886,0.0878,0.0872,0.0861,0.0858,0.0853,0.0848,0.0847,0.084,0.0837,0.0832,0.0825,0.0815,0.0809,0.0801,0.0786,0.0783,0.0779,0.0777,0.0776,0.0774,0.0764,0.0762,0.0788,0.0788,0.0788,0,0,0.0882,0.0876,0.0872,0.086,0.0855,0.0846,0.0851,0.0842,0.0834,0.0836,0.0823,0.0819,0.081,0.0796,0.0789,0.0792,0.0766,0.0775,0.0774,0.0773,0.0763,0.076,0.0758,0.0787,0.0787,0.0787,0,0,0.0869,0.0864,0.0854,0.0849,0.0841,0.0838,0.0835,0.0828,0.0825,0.0812,0.0812,0.0803,0.0788,0.0781,0.0776,0.0759,0.0759,0.0756,0.0748,0.0738,0.0736,0.0734,0.0727,0.0724,0.0755,0.0755,0.0755,0,0.0864,0.0851,0.0849,0.0839,0.0833,0.0834,0.0823,0.0818,0.0807,0.0803,0.0807,0.0786,0.0781,0.0764,0.0759,0.0756,0.0752,0.0757,0.0737,0.0735,0.0733,0.0726,0.0723,0.0754,0.0754,0.0754,0.0754,0,0.0845,0.0835,0.0828,0.0818,0.0811,0.0801,0.0797,0.079,0.0789,0.0786,0.0772,0.0765,0.0754,0.075,0.0749,0.0733,0.0734,0.0737,0.0743,0.073,0.0723,0.072,0.0754,0.0754,0.0754,0.0754,0,0,0.083,0.0818,0.0815,0.0809,0.08,0.0792,0.0781,0.0771,0.0765,0.0757,0.0747,0.0733,0.0735,0.0729,0.0727,0.0719,0.0704,0.0723,0.0722,0.0718,0.0683,0.068,0.0677,0.0704,0.0704,0.0704,0.0683,0,0.0815,0.0796,0.0793,0.0776,0.0767,0.0767,0.0757,0.0749,0.0745,0.0736,0.0731,0.0721,0.0725,0.0721,0.0713,0.0708,0.0697,0.0709,0.0694,0.0693,0.0695,0.0674,0.0671,0.0653,0.0681,0.068,0.068,0,0.0795,0.0786,0.0768,0.0759,0.0755,0.0746,0.0735,0.0727,0.0718,0.0715,0.0708,0.0707,0.0694,0.0701,0.0683,0.0691,0.0685,0.0681,0.068,0.0678,0.0685,0.067,0.0647,0.0643,0.0676,0.0676,0.0677,0,0.0784,0.0768,0.0755,0.075,0.0739,0.0733,0.0728,0.0719,0.0713,0.0703,0.0698,0.0687,0.0681,0.0672,0.0668,0.0673,0.0649,0.0656,0.0645,0.0645,0.064,0.064,0.0614,0.0637,0.0637,0.0638,0.0638,0,0.0767,0.0756,0.075,0.0741,0.0728,0.0725,0.0711,0.0706,0.0699,0.0688,0.0688,0.0678,0.0674,0.0663,0.0659,0.0644,0.0641,0.0638,0.0637,0.0637,0.0637,0.0632,0.0633,0.0637,0.0637,0.0637,0.0637,0,0.0753,0.0749,0.0734,0.0724,0.0721,0.0712,0.0703,0.0694,0.069,0.0677,0.0674,0.0667,0.0654,0.0649,0.0633,0.0631,0.0612,0.0613,0.0615,0.0615,0.0604,0.0604,0.0573,0.0568,0.0596,0.0595,0.0595,0,0.0742,0.0733,0.0722,0.0716,0.071,0.07,0.0693,0.0689,0.0681,0.0669,0.0661,0.0649,0.0638,0.0617,0.061,0.0598,0.0597,0.0587,0.0595,0.0596,0.0595,0.0595,0.0594,0.0585,0.0585,0.0585,0.0585,0,0.0723,0.0721,0.0711,0.0699,0.0691,0.0682,0.0673,0.0667,0.0662,0.0653,0.064,0.0632,0.0615,0.0602,0.0589,0.0582,0.0582,0.0582,0.0579,0.0579,0.058,0.0577,0.061,0.0583,0.0583,0.0583,0.0583,0.0583,0.0709,0.0701,0.0691,0.0679,0.0672,0.0664,0.0654,0.0648,0.0638,0.0624,0.0622,0.0607,0.0597,0.0579,0.0572,0.056,0.0563,0.0558,0.0557,0.0556,0.0554,0.0582,0.0558,0.0558,0.0558,0.0558,0.0558,0,0.0689,0.0682,0.0672,0.0659,0.0649,0.065,0.064,0.0631,0.0619,0.0609,0.0599,0.0582,0.0569,0.056,0.0547,0.0538,0.0538,0.0535,0.0535,0.0533,0.0553,0.0557,0.0535,0.0535,0.0535,0.0535,0.0535,0.0535,0.0677,0.0662,0.0658,0.0639,0.0633,0.0618,0.0612,0.0604,0.0596,0.0578,0.0567,0.0561,0.0552,0.0537,0.0524,0.0522,0.0516,0.0513,0.051,0.0529,0.0532,0.0534,0.0537,0.0512,0.0512,0.0491,0.049,0.049]},{"header":{"parameterUnit":"m.s-1","parameterCategory":1,"la1":30.2991,"la2":30.254,"lo1":-89.0895,"lo2":-89.0444,"dy":0.0017,"dx":0.0017,"nx":28,"ny":28,"refTime":"2025-09-05T21:00:00:Z","depth":0,"parameterNumber":3,"parameterNumberName":"V-component_of_WINDS"},"data":[0,0,0,0,0,0,0,0,0,0,0,0,0,0,0,0,0,0,0,0,0,0,0,0,0,0,0,0,0,0,0,0,0,0,0,0,0,0,0,0,0,0,0,0,0,0,0,0,0,0,0,0,0,0,0,0,0,0,2.8697,2.8697,0,2.869,2.869,2.869,2.8639,2.8638,2.8636,2.8635,2.8628,2.8629,2.863,0,0,0,0,0,0,0,0,0,0,0,0,0,2.8663,2.8664,2.8697,2.8697,2.8697,2.869,2.869,2.869,2.8639,2.8638,2.8636,2.8635,2.8628,2.8629,2.863,0,0,0,0,0,0,0,0,0,0,0,0,0,2.867,2.8665,2.8697,2.8671,2.8668,2.869,2.869,2.869,2.8639,2.8638,2.8636,2.8634,2.8627,2.8629,2.863,2.8677,0,0,2.8635,2.8635,0,0,0,0,0,0,0,0,2.8669,2.8671,2.8674,2.8672,2.867,2.8664,2.8676,2.8686,2.864,2.865,2.8635,2.8633,2.8641,2.8642,2.8645,2.8677,2.8677,2.8635,2.8636,2.8637,2.8637,0,0,0,0,0,0,0,2.8669,2.8671,2.8694,2.8675,2.8672,2.8658,2.8657,2.8678,2.8657,2.8649,2.8646,2.8645,2.864,2.8643,2.8644,2.8677,2.8635,2.8636,2.8637,2.8638,2.8745,2.8747,0,0,0,0,0,0,2.8672,2.8671,2.8695,2.8694,2.8665,2.8661,2.8659,2.8667,2.8656,2.8653,2.8647,2.8643,2.8642,2.8642,2.8644,2.8696,2.8636,2.8638,2.8639,2.8743,2.8745,2.8748,0,0,0,0,0,0,2.8672,2.8675,2.8695,2.8681,2.8683,2.8663,2.8673,2.8668,2.8672,2.8655,2.865,2.8655,2.864,2.8641,2.8669,2.8695,2.8639,2.864,2.8741,2.8744,2.8747,2.8802,0,0,0,0,0,0,2.8671,2.8675,2.8693,2.8682,2.8684,2.8721,2.8675,2.867,2.8674,2.8669,2.8661,2.8657,2.8639,2.8667,2.867,2.8696,2.8641,2.8738,2.8742,2.8746,2.8798,2.8807,2.8814,0,0,0,0,0,2.867,2.871,2.8695,2.8698,2.8706,2.8722,2.8723,2.8701,2.8677,2.8694,2.8683,2.8658,2.8692,2.867,2.8674,2.87,2.8736,2.8741,2.8745,2.8794,2.8805,2.8814,0,0,0,0,0,0,2.8725,2.8708,2.8691,2.8728,2.8727,2.8714,2.8735,2.8714,2.872,2.8714,2.8687,2.8685,2.8716,2.8711,2.8687,2.8744,2.871,2.8715,2.8746,2.8756,2.8764,2.8763,2.8642,0,0,0,0,0,2.8741,2.8756,2.874,2.8775,2.8775,2.8756,2.8762,2.8745,2.8743,2.8742,2.8733,2.8731,2.8741,2.8749,2.8757,2.8798,2.8794,2.8817,2.8826,2.8832,2.8837,2.8855,2.8865,2.8762,2.8762,2.8762,0,0,2.8775,2.8768,2.8779,2.8785,2.8783,2.8798,2.8755,2.8774,2.8784,2.8745,2.8769,2.8763,2.8759,2.8792,2.8807,2.8789,2.8864,2.8838,2.8843,2.8844,2.8861,2.887,2.8879,2.8765,2.8764,2.8764,0,0,2.8844,2.8841,2.8868,2.8866,2.8862,2.8848,2.8855,2.8845,2.8838,2.8863,2.8832,2.8845,2.8864,2.8861,2.8863,2.893,2.8906,2.8934,2.8975,2.8994,2.9002,2.9009,2.903,2.9039,2.8938,2.8939,2.8939,0,2.8886,2.8908,2.8884,2.8904,2.8907,2.8872,2.8898,2.8897,2.8896,2.8899,2.888,2.8901,2.8896,2.8927,2.8944,2.8947,2.8952,2.8934,2.9003,2.9009,2.9016,2.9036,2.9044,2.8942,2.8941,2.8941,2.8941,0,2.8959,2.8975,2.8997,2.8996,2.9002,2.9025,2.9004,2.9013,2.8995,2.8984,2.9008,2.9001,2.9007,2.9013,2.8997,2.9042,2.9031,2.9008,2.8972,2.9029,2.9047,2.9055,2.8946,2.8945,2.8944,2.8944,0,0,2.9061,2.9047,2.9055,2.9053,2.9046,2.9057,2.9078,2.9083,2.909,2.9091,2.9107,2.9123,2.9101,2.9103,2.9086,2.9102,2.9153,2.9077,2.9076,2.9089,2.9199,2.9215,2.9224,2.9137,2.9139,2.914,2.9198,0,2.9126,2.916,2.9139,2.9176,2.9189,2.9155,2.9173,2.917,2.916,2.9169,2.9158,2.9168,2.914,2.914,2.9155,2.9143,2.9174,2.9139,2.915,2.9151,2.915,2.9234,2.9251,2.9307,2.9206,2.9207,2.9208,0,2.9205,2.9208,2.9246,2.9235,2.9239,2.9256,2.9258,2.9267,2.9263,2.9254,2.9255,2.9234,2.9252,2.9219,2.9243,2.922,2.9224,2.9218,2.922,2.9218,2.9181,2.9232,2.9324,2.9331,2.9219,2.9218,2.9218,0,2.9273,2.9287,2.9311,2.9311,2.9298,2.931,2.9306,2.9299,2.9303,2.9305,2.9307,2.9312,2.9313,2.9317,2.9297,2.9275,2.9323,2.9289,2.9315,2.9315,2.9325,2.9324,2.9415,2.9331,2.9331,2.9331,2.933,0,2.9345,2.9369,2.934,2.9355,2.9381,2.9356,2.9382,2.9374,2.9369,2.938,2.9352,2.9364,2.9338,2.9346,2.9331,2.9352,2.9354,2.9346,2.9341,2.9347,2.9348,2.9347,2.9342,2.9333,2.9332,2.9332,2.9332,0,2.9424,2.9406,2.943,2.9416,2.9413,2.9432,2.942,2.9432,2.942,2.9435,2.9437,2.9418,2.9426,2.9407,2.9413,2.9403,2.9432,2.9422,2.9433,2.9429,2.9456,2.9453,2.9548,2.9559,2.947,2.9471,2.9472,0,2.9471,2.9488,2.9476,2.9481,2.9478,2.9488,2.9491,2.9468,2.9472,2.9468,2.948,2.9487,2.949,2.9505,2.9491,2.9495,2.9484,2.9517,2.9484,2.9489,2.9482,2.948,2.948,2.9524,2.9525,2.9526,2.9526,0,2.9554,2.9544,2.955,2.9552,2.9557,2.9558,2.9557,2.9563,2.9538,2.9544,2.9553,2.9555,2.9561,2.9567,2.9567,2.9562,2.9539,2.9537,2.9543,2.9548,2.9553,2.9548,2.9449,2.9534,2.9534,2.9533,2.9533,2.9532,2.9616,2.9629,2.9622,2.9629,2.9626,2.9625,2.9635,2.9624,2.963,2.9632,2.9619,2.9629,2.9623,2.9621,2.9618,2.9626,2.9611,2.962,2.9621,2.9623,2.9627,2.9553,2.9626,2.9626,2.9626,2.9625,2.9625,0,2.9696,2.9689,2.9696,2.9695,2.97,2.9679,2.9676,2.9682,2.9692,2.9688,2.9691,2.97,2.9705,2.9691,2.9694,2.9703,2.9692,2.9704,2.9702,2.9701,2.9641,2.9635,2.9712,2.9712,2.9712,2.9712,2.9712,2.9712,2.9738,2.9758,2.9747,2.9765,2.9758,2.9768,2.9768,2.9767,2.9763,2.9773,2.9777,2.9769,2.976,2.9762,2.9765,2.9761,2.9763,2.9778,2.977,2.9714,2.9705,2.9697,2.9691,2.9779,2.9779,2.9828,2.9828,2.9829]}]]